Location: Cactus School
(34.5700°N, 118.0931°W)
Time: 09:33:20
(UTC-07:00)

Vanguard 1 Rocket - Pass Details

Date: 20 April 2024
Orbit: 650 x 4220 km, 34.3° (Epoch: 22 May)

Event Time Altitude Azimuth Distance (km) Brightness Sun altitude
Rises 23:29:34 0° 281° (W) 3,973 11.1 -39.5°
Reaches altitude 10° 23:31:46 10° 278° (W) 3,282 10.5 -39.7°
Enters shadow 23:36:47 45° 256° (WSW) 2,169 9.2 -40.2°
